STARLINK-11451 [DTC] (62561 NORAD) Tracking and Keplerian Element Data

This shows tracking and keplerian element data for the satellite.

Feedback or suggestion? Click here.




ElementValue
Catalog62561
NameSTARLINK-11451 [DTC]
Epoch Orbit497
Epoch Day34.97493022
Epoch Year2025
RAAN26.9261
Inclination42.9985
Eccentricity0.0004948
Argument of Perigee301.0309
Mean Anonmoly59.0075
Mean Motion15.77861756
Decay Rate0.00018897
L11 62561U 25006H 25034.97493022 .00018897 00000+0 11113-3 0 9995
L22 62561 42.9985 26.9261 0004948 301.0309 59.0075 15.77861756 4975



Live tracking and technical data element details for STARLINK-11451 [DTC] (NORAD 62561). STARLINK-11451 [DTC] can be tracked NOW for your location showing map with azimuth and elevation plus other details from your city location.







IsCatalogInMostPopularTable: catalog: 62561, numindb: 11
Update: records affected: 1



GetName: 62561 STARLINK-11451 [DTC]

Hit Count: updated at: Mon, 19 May 2025 01:28:31 GMT